Location: *
(44.9308°N, 123.0197°W)
Time: 21:35:56
(UTC+00:00)

Landsat 5 - Pass Details

Date: 09 April 2020
Orbit: 529 x 654 km, 98.2° (Epoch: 02 June)

Event Time Altitude Azimuth Distance (km) Brightness Sun altitude
Exits shadow 12:04:19 32° 259° (WSW) 937 4.0 -16.2°
Maximum altitude 12:04:27 32° 263° (W) 936 4.0 -16.1°
Drops below altitude 10° 12:07:56 10° 327° (NNW) 1,802 5.9 -15.6°
Sets 12:10:15 0° 338° (NNW) 2,712 6.9 -15.2°
